Вернуться в каталог

FENGYUN 3E

АктивенПогодаSSO
NORAD 49008·PAYLOAD·🇨🇳 China

Запущен Jul 4, 2021 с Jiuquan Satellite Launch Center

Loading…

Ближайшие Пролёты (ближайшие 24 часа)

TLE

СвежийSource: Space-Track

Эпоха: Sep 14, 2026, 14:58 UTC

1 49008U 21062A   26257.62402089  .00000150  00000-0  91356-4 0  9999
2 49008  98.7542 260.0549 0001646 151.1302 208.9965 14.19911502269272

Отслеживайте FENGYUN 3E в реальном времени с AllMySat

Download on the App Store